YAOGAN-30 J

导读

YAOGAN-30 J是中国于2017年12月25日发射的遥感三十号系列卫星,隶属于该系列第九组组网卫星,同组还包含YAOGAN-30 G、YAOGAN-30 H两颗卫星。该卫星采用多星组网模式运行,轨道倾角约95.9度,主要任务是开展电磁环境探测及相关空间科学技术试验,服务我国国土观测、空间环境研究等领域,是中国遥感卫星组网体系的重要组成部分。

基本信息
目录编号:
43083
目录名称:
YAOGAN-30 J
国际标识:
2017-085C
轨道中心:
EARTH
卫星名称:
YAOGAN-30 J
卫星全名:
--
卫星状态:
在轨 (已飞行3091 天)
发射日期:
2017-12-25 UTC
国别 :
中国 (CN)
星等 :
--
轨道信息
数据来源 国际轨道数据 AOE轨道数据
星历时间 2026-06-12T08:23:49+0800
19小时前
查看轨道信息
2026-06-08T02:00:00+0800
5天前
查看轨道信息
半长轴 6936.948km 6936.917km
偏心率 0.000396 0.000374
轨道倾角 34.994° 34.993°
近地点辐角 93.372° 52.220°
升交点赤经 182.086° 208.086°
平近点角 266.744° 231.059°
近地点 556.063km 556.185km
远地点 561.559km 561.375km
周期 95.832分钟 95.832分钟
每日圈数 15.026235 15.026336
详细信息
使用方式:
暂无
2D轨道图
3D轨道图
轨道高度分析图
轨道倾角分析图
轨道综合分析图
查看轨道综合分析图